Date String (YYYY-MM-DD hh:mm:ss) UTC,Instrument flags,absolute air pressure of the measurement (hPa),sample flow rate (lpm),inlet stack bypass flow (lpm),air temperature of the measurement (°C),ambient temperature measured by the external sensor (°C),aerosol sample conditioner tube jacket temperature (°C),OPC LED temperature (°C),internal box temperature (°C),relative humidity of the measurement (%),span deviation,mass concentration of particles derived from Lorenz-Mie calculation of OPC scattering (μg/m³),mass concentration of particles derived from Lorenz-Mie calculation of OPC scattering (μg/m³),mass concentration of particles derived from Lorenz-Mie calculation of OPC scattering (μg/m³)
DateTimeUTC,F1_M11,P_M11,Q1_M11,Q2_M11,T1_M11,T2_M11,T3_M11,T4_M11,T5_M11,U1_M11,ZSPAN_M11,X0_M11,X2_M11,X1_M11
2023-11-08 05:00:00,SystemResetWarning,0824.9,5.00,000.00,028.4,027.5,000.0,036.8,029.8,14.2,0000.0,0012.62,0002.63,0001.26
2023-11-08 05:01:00,SystemResetWarning,0824.9,5.00,000.00,028.4,027.5,000.0,036.8,029.8,14.2,0000.0,0011.14,0002.59,0001.26
2023-11-08 05:02:00,SystemResetWarning,0824.9,4.99,000.00,028.4,027.5,000.0,036.8,029.8,14.3,0000.0,0011.64,0002.65,0001.27
2023-11-08 05:03:00,SystemResetWarning,0824.9,5.01,000.00,028.4,027.4,000.0,036.8,029.8,14.3,0000.0,0011.25,0002.63,0001.29
2023-11-08 05:04:00,SystemResetWarning,0824.9,5.01,000.00,028.4,027.4,000.0,036.8,029.8,14.2,0000.0,0011.69,0002.60,0001.30
2023-11-08 05:05:00,SystemResetWarning,0824.8,5.01,000.00,028.4,027.4,000.0,036.8,029.8,14.2,0000.0,0012.22,0002.66,0001.32
2023-11-08 05:06:00,SystemResetWarning,0824.7,5.00,000.00,028.4,027.4,000.0,036.8,029.8,14.2,0000.0,0013.00,0002.73,0001.32
2023-11-08 05:07:00,SystemResetWarning,0824.8,4.98,000.00,028.4,027.4,000.0,036.8,029.8,14.2,0000.0,0012.27,0002.71,0001.33
2023-11-08 05:08:00,SystemResetWarning,0824.8,5.00,000.00,028.4,027.4,000.0,036.8,029.8,14.3,0000.0,0011.49,0002.66,0001.35
2023-11-08 05:09:00,SystemResetWarning,0824.8,5.01,000.00,028.4,027.4,000.0,036.8,029.8,14.3,0000.0,0011.28,0002.69,0001.37
2023-11-08 05:10:00,SystemResetWarning,0824.8,5.01,000.00,028.4,027.4,000.0,036.8,029.8,14.3,0000.0,0011.47,0002.63,0001.37
2023-11-08 05:11:00,SystemResetWarning,0824.7,5.00,000.00,028.4,027.4,000.0,036.8,029.8,14.3,0000.0,0011.71,0002.59,0001.36
2023-11-08 05:12:00,SystemResetWarning,0824.8,4.99,000.00,028.4,027.4,000.0,036.8,029.8,14.3,0000.0,0011.44,0002.63,0001.36
2023-11-08 05:13:00,SystemResetWarning,0824.8,4.99,000.00,028.4,027.4,000.0,036.8,029.8,14.3,0000.0,0011.35,0002.70,0001.37
2023-11-08 05:14:00,SystemResetWarning,0824.9,5.00,000.00,028.4,027.5,000.0,036.8,029.8,14.4,0000.0,0011.63,0002.83,0001.37
2023-11-08 05:15:00,SystemResetWarning,0824.9,5.00,000.00,028.4,027.4,000.0,036.8,029.8,14.4,0000.0,0011.62,0002.87,0001.38
2023-11-08 05:16:00,SystemResetWarning,0824.9,5.00,000.00,028.4,027.4,000.0,036.8,029.8,14.4,0000.0,0010.91,0002.88,0001.37
2023-11-08 05:17:00,SystemResetWarning,0824.9,5.00,000.00,028.4,027.4,000.0,036.8,029.8,14.3,0000.0,0010.26,0002.84,0001.38
2023-11-08 05:18:00,SystemResetWarning,0824.9,5.01,000.00,028.4,027.4,000.0,036.8,029.8,14.3,0000.0,0009.60,0002.87,0001.39
2023-11-08 05:19:00,SystemResetWarning,0824.9,5.00,000.00,028.4,027.4,000.0,036.8,029.8,14.3,0000.0,0010.09,0002.95,0001.38
2023-11-08 05:20:00,SystemResetWarning,0824.9,5.00,000.00,028.4,027.4,000.0,036.8,029.8,14.4,0000.0,0010.66,0003.04,0001.37
2023-11-08 05:21:00,SystemResetWarning,0824.9,5.00,000.00,028.4,027.4,000.0,036.8,029.8,14.4,0000.0,0010.74,0003.07,0001.35
2023-11-08 05:22:00,SystemResetWarning,0824.9,5.00,000.00,028.4,027.4,000.0,036.8,029.8,14.4,0000.0,0009.77,0003.04,0001.35
2023-11-08 05:23:00,SystemResetWarning,0824.9,5.00,000.00,028.4,027.4,000.0,036.8,029.8,14.4,0000.0,0009.66,0002.98,0001.37
2023-11-08 05:24:00,SystemResetWarning,0824.9,5.00,000.00,028.4,027.3,000.0,036.8,029.8,14.5,0000.0,0009.81,0002.94,0001.36
2023-11-08 05:25:00,SystemResetWarning,0824.9,5.00,000.00,028.4,027.3,000.0,036.8,029.8,14.5,0000.0,0010.02,0002.86,0001.36
2023-11-08 05:26:00,SystemResetWarning,0824.9,5.00,000.00,028.4,027.4,000.0,036.8,029.7,14.5,0000.0,0010.26,0002.82,0001.36
2023-11-08 05:27:00,SystemResetWarning,0824.9,5.00,000.00,028.3,027.3,000.0,036.8,029.8,14.5,0000.0,0010.73,0002.83,0001.37
2023-11-08 05:28:00,SystemResetWarning,0824.9,5.00,000.00,028.3,027.3,000.0,036.8,029.7,14.5,0000.0,0010.99,0002.83,0001.37
2023-11-08 05:29:00,SystemResetWarning,0824.9,5.00,000.00,028.3,027.3,000.0,036.8,029.7,14.5,0000.0,0011.24,0002.78,0001.37
2023-11-08 05:30:00,SystemResetWarning,0824.9,5.00,000.00,028.3,027.3,000.0,036.8,029.7,14.5,0000.0,0010.76,0002.79,0001.37
2023-11-08 05:31:00,SystemResetWarning,0824.9,5.00,000.00,028.3,027.3,000.0,036.8,029.8,14.5,0000.0,0011.01,0002.78,0001.38
2023-11-08 05:32:00,SystemResetWarning,0824.9,4.99,000.00,028.3,027.3,000.0,036.8,029.8,14.5,0000.0,0010.59,0002.70,0001.40
2023-11-08 05:33:00,SystemResetWarning,0824.9,5.00,000.00,028.3,027.3,000.0,036.8,029.8,14.5,0000.0,0010.66,0002.69,0001.41
2023-11-08 05:34:00,SystemResetWarning,0824.9,5.00,000.00,028.3,027.3,000.0,036.8,029.8,14.5,0000.0,0011.89,0002.77,0001.42
2023-11-08 05:35:00,SystemResetWarning,0824.8,5.01,000.00,028.3,027.3,000.0,036.8,029.7,14.5,0000.0,0012.07,0002.84,0001.43
2023-11-08 05:36:00,SystemResetWarning,0824.8,5.01,000.00,028.3,027.3,000.0,036.8,029.7,14.5,0000.0,0011.65,0002.84,0001.46
2023-11-08 05:37:00,SystemResetWarning,0824.8,5.00,000.00,028.3,027.3,000.0,036.8,029.7,14.5,0000.0,0011.96,0002.80,0001.45
2023-11-08 05:38:00,SystemResetWarning,0824.7,4.99,000.00,028.3,027.3,000.0,036.8,029.8,14.5,0000.0,0011.52,0002.81,0001.45
2023-11-08 05:39:00,SystemResetWarning,0824.8,4.99,000.00,028.3,027.3,000.0,036.7,029.7,14.5,0000.0,0011.55,0002.88,0001.46
2023-11-08 05:40:00,SystemResetWarning,0824.8,5.00,000.00,028.3,027.3,000.0,036.7,029.7,14.5,0000.0,0011.67,0002.95,0001.47
2023-11-08 05:41:00,SystemResetWarning,0824.7,5.01,000.00,028.3,027.3,000.0,036.7,029.7,14.5,0000.0,0012.42,0002.95,0001.50
2023-11-08 05:42:00,SystemResetWarning,0824.7,5.01,000.00,028.3,027.3,000.0,036.7,029.7,14.5,0000.0,0011.59,0002.93,0001.51
2023-11-08 05:43:00,SystemResetWarning,0824.7,5.00,000.00,028.3,027.3,000.0,036.7,029.7,14.5,0000.0,0011.48,0002.93,0001.50
2023-11-08 05:44:00,SystemResetWarning,0824.7,5.00,000.00,028.3,027.3,000.0,036.7,029.7,14.5,0000.0,0012.51,0003.03,0001.49
2023-11-08 05:45:00,SystemResetWarning,0824.7,4.99,000.00,028.3,027.3,000.0,036.7,029.7,14.5,0000.0,0011.53,0003.00,0001.49
2023-11-08 05:46:00,SystemResetWarning,0824.7,4.99,000.00,028.3,027.3,000.0,036.7,029.7,14.6,0000.0,0011.47,0003.06,0001.51
2023-11-08 05:47:00,SystemResetWarning,0824.7,5.00,000.00,028.3,027.3,000.0,036.7,029.7,14.6,0000.0,0011.60,0003.09,0001.51
2023-11-08 05:48:00,SystemResetWarning,0824.7,5.01,000.00,028.3,027.3,000.0,036.7,029.6,14.6,0000.0,0011.09,0003.12,0001.54
2023-11-08 05:49:00,SystemResetWarning,0824.7,5.00,000.00,028.3,027.3,000.0,036.7,029.7,14.6,0000.0,0011.35,0003.10,0001.54
2023-11-08 05:50:00,SystemResetWarning,0824.7,5.01,000.00,028.3,027.3,000.0,036.7,029.7,14.6,0000.0,0011.40,0003.06,0001.54
2023-11-08 05:51:00,SystemResetWarning,0824.7,5.00,000.00,028.3,027.3,000.0,036.7,029.7,14.6,0000.0,0011.62,0003.08,0001.55
2023-11-08 05:52:00,SystemResetWarning,0824.7,5.00,000.00,028.3,027.3,000.0,036.7,029.7,14.6,0000.0,0011.07,0003.07,0001.55
2023-11-08 05:53:00,SystemResetWarning,0824.7,5.00,000.00,028.3,027.3,000.0,036.7,029.7,14.6,0000.0,0011.16,0003.11,0001.56
2023-11-08 05:54:00,SystemResetWarning,0824.7,5.00,000.00,028.2,027.3,000.0,036.7,029.7,14.6,0000.0,0011.29,0003.15,0001.57
2023-11-08 05:55:00,SystemResetWarning,0824.7,5.00,000.00,028.2,027.3,000.0,036.7,029.7,14.6,0000.0,0010.57,0003.11,0001.59
2023-11-08 05:56:00,SystemResetWarning,0824.7,5.00,000.00,028.2,027.2,000.0,036.7,029.7,14.6,0000.0,0010.61,0003.12,0001.61
2023-11-08 05:57:00,SystemResetWarning,0824.7,5.00,000.00,028.2,027.2,000.0,036.7,029.7,14.6,0000.0,0010.92,0003.11,0001.63
2023-11-08 05:58:00,SystemResetWarning,0824.7,5.00,000.00,028.2,027.2,000.0,036.7,029.6,14.6,0000.0,0011.10,0003.11,0001.65
2023-11-08 05:59:00,SystemResetWarning,0824.7,5.00,000.00,028.2,027.2,000.0,036.7,029.6,14.7,0000.0,0011.08,0003.15,0001.67
